CAPE
2387 2586 2347 2392 2312 2060 2231 2032 1961 2071 2151 1913 1726 1814 1878 2386 2394 2347 2371 3088 3147 3387 3779 3822 3732 3570 3516 3716 4340 3677 3776 3892 3772 3270 2982 2861 2900 2420 2258 2911 2712 2320
2302 2638 2578 2450 2548 2702 2500 2405 2196 2060 2184 2464 2050 1824 2163 2332 2502 2522 2605 2686 3037 3226 3587 3641 3731 3487 3565 3719 4305 3672 3855 3901 3772 3069 3194 3468 2848 2662 2269 2304 2182 2544
2318 2283 2452 2593 2491 2611 2381 2265 2363 2409 2197 2178 2093 2224 2070 2037 2029 2340 2502 2588 2664 2888 3247 3551 3627 3578 3270 3555 4244 3952 3392 3823 3673 3394 3540 3606 3206 3031 2952 2340 2158 2500
2475 2244 2285 2207 2294 2144 2120 2200 2372 2415 2244 2304 2212 2100 1873 1802 1728 2227 2689 2801 2897 3096 3300 3348 3238 3190 3208 2949 3731 3759 3551 4139 3652 3918 4025 3970 3852 3445 3010 2762 2383 2188
2146 2111 2186 2370 2305 2398 2370 2157 1993 1908 2023 2133 2103 2252 2162 2138 2593 2417 2522 2740 3008 3088 3121 3046 3201 2982 3040 3116 3554 3677 3364 3489 3548 4039 3864 3832 3964 3827 3006 2666 3065 2658
2126 2072 2044 2068 2428 2663 2452 2380 2295 1937 2042 1941 2141 2173 2058 2370 2384 2352 2426 2588 2590 2374 2348 2578 2843 2845 2724 2852 2938 3169 3117 2934 2895 4003 4085 3952 3406 3115 2887 3003 3404 3262
1921 1984 1868 1828 1887 2015 2300 2248 2356 2252 2044 2098 2310 2302 2314 2287 2303 2191 2533 2720 2477 2563 2234 2302 2880 2883 2740 2892 3251 3529 3368 3225 3175 3599 3799 3510 3316 3244 2753 2675 3022 3238
1682 1807 1972 1958 1820 2000 2057 2187 2281 2303 2249 2552 2468 2674 2619 2391 2543 2498 2370 2419 2614 2566 2779 2644 2930 3323 2724 2588 2759 3082 3143 2760 3104 3247 3338 3331 3062 2985 2811 2469 2587 3086
1712 1728 1906 1951 2136 2362 2271 2097 2025 2067 2341 2280 2356 2372 2604 2387 2478 2373 2686 2931 2899 2806 3138 3062 3050 3032 2848 2732 2786 3022 3298 2885 2457 2774 3145 3088 2826 2804 2471 2398 2300 2666
2020 1769 1819 2010 2030 2254 2249 2310 1979 2154 2263 2112 2181 2191 2211 2655 2411 2532 2738 3207 2922 2927 3019 3083 3316 3278 2920 2849 3005 2976 3105 3291 2922 2766 2624 2484 2394 2174 1815 1872 1926 2261
2384 1900 2012 2169 2028 1923 1877 1858 1899 1934 2212 2259 2184 2088 2183 2335 2751 2645 2808 3189 2977 2807 3119 3375 3346 3282 3318 3056 2822 3008 3280 3104 3048 3208 3363 3356 3043 2588 2486 2380 2235 2245
2692 2530 2244 2175 1975 1862 1780 1732 1656 1586 1837 2234 2217 2252 2443 2373 2552 2843 2716 2988 2860 2786 2916 3349 3461 3612 3668 3586 3113 3062 2905 3021 3084 3288 3198 3236 3116 2935 2763 2535 2350 2696
2779 2464 2476 2194 2071 2000 1720 1703 1593 1539 1566 1905 2250 2324 2384 2338 2302 2595 2716 2944 3163 2903 2674 2955 3446 3455 3803 4034 3592 3169 2898 2902 2962 3103 3246 3013 3024 2842 2649 2538 2560 2685
3318 2557 2381 2227 2366 2314 2084 1889 1665 1586 1740 1891 2333 2518 2352 2242 2196 2210 2542 2702 2798 2793 2953 2964 3383 3657 3958 4074 3771 3380 3139 3100 3139 3096 2802 2817 2803 2911 2790 2624 2550 2506
3962 3336 2871 2610 2471 2615 2466 2024 2011 2028 2029 2221 2490 2567 2281 2180 2176 2121 2358 2436 2592 2837 2974 2936 2794 3128 3274 3386 3548 3555 3199 2926 2927 3075 3033 2837 2800 2505 2512 2563 2632 2583
4593 4177 3765 3482 3255 3203 3198 2679 2366 2420 2207 2406 2608 2639 2488 2440 2469 2586 2574 2504 2592 2736 2896 2764 2629 2540 2787 3163 3040 2992 3099 2825 2586 2757 2868 2774 3579 3471 3013 2952 2559 2519
4736 4938 4832 4434 3960 3632 3607 3485 2937 2959 2708 2810 2847 2821 2808 2745 2733 2660 2545 2448 2338 2381 2414 2276 2381 1476 1537 1828 2246 2422 2430 2508 2676 2888 3462 3960 3497 3068 2755 2714 2276 2334
3783 3920 4277 4636 4410 4022 3774 3767 3761 3282 3426 3602 3324 3006 3395 2914 2750 2750 2749 2597 2455 2309 2161 1906 1360 1225 1308 1298 1549 1682 2048 2688 2348 2510 2610 2748 3116 2917 2765 2594 2345 2436
3532 3337 3443 3467 3956 4383 3940 3595 3559 3785 3604 3381 2951 3039 2751 3037 3119 2813 2819 2820 2480 2628 2287 2536 2518 2087 1540 1539 1544 1703 1354 1586 1908 1513 1600 2030 1914 2038 2303 2748 3254 2913
2626 3082 3142 3212 3473 3959 4042 3535 3370 3072 3103 3135 3042 3152 3193 3195 3061 2987 3068 3122 3000 2920 3026 2828 2654 2087 1789 1373 1433 1561 1297 1193 2230 1376 1978 2654 2246 2103 2482 2540 2500 3526
3078 3100 3110 3135 3198 3587 3886 3707 3500 3208 3118 3032 3047 3266 3643 4074 3430 3332 3462 3241 2971 2616 2580 2087 1516 1712 1360 1129 1308 1432 1326 1166 2060 1920 2138 2233 2263 2276 2398 2379 2822 2861
2967 3084 2951 2896 2809 2217 2778 3130 3343 3473 3163 3150 3243 3412 3379 3652 3812 3496 3526 3878 4009 3656 3432 3003 1777 1065 862 964 1205 1130 844 884 1818 2758 3080 2794 2452 2248 2452 2342 2394 3380
2701 2962 2689 2577 2675 2616 2757 3066 3228 3362 3146 3220 3323 3424 3294 3394 3416 2989 2855 2784 2889 3044 2974 2443 1963 1574 1260 1059 737 536 670 1042 2029 2210 2728 3096 2978 2769 2816 2922 2655 2240
2239 2403 2032 1710 1740 1684 2275 2871 2831 2763 2863 2851 3042 3144 3052 2772 2560 2329 2203 1848 1674 1570 1290 2174 1392 1049 698 622 590 610 581 959 1905 2451 2870 3036 2921 2831 3436 3006 2002 2088
1430 1328 1357 1419 1406 1405 1517 1718 1653 1789 1774 1488 1583 1730 1982 1941 1565 1779 1628 1349 1040 709 686 855 672 657 627 619 648 615 596 1003 1849 2132 2304 2420 2495 2544 2228 1977 1785 1487
861 766 720 728 877 965 1177 1269 1304 1355 1387 1541 1394 1150 1189 1353 1225 1267 1326 693 385 338 444 470 436 421 479 592 632 698 688 679 1401 1707 1719 1863 1692 1647 1481 1302 1352 1382
Wind_Speed
9 8 7 6 7 7 7 7 7 8 8 9 8 8 8 7 6 5 5 3 4 4 3 4 4 4 4 3 3 3 4 4 5 2 1 2 1 2 2 2 2 3
7 7 6 6 5 5 6 6 6 7 7 8 8 5 6 5 5 5 4 4 4 4 4 3 3 3 4 3 2 3 3 3 2 2 1 0 1 1 1 2 2 1
6 5 4 4 4 4 5 4 4 5 6 7 6 5 5 5 5 3 3 4 4 4 3 4 4 3 4 3 3 3 2 2 3 3 2 2 3 2 2 2 0 1
4 4 3 3 3 2 2 2 2 3 4 4 5 5 4 3 2 2 1 3 4 4 4 3 4 4 3 3 3 4 3 3 3 4 3 3 2 3 2 1 1 0
2 2 3 2 2 2 2 0 1 2 3 2 3 3 2 2 3 2 1 2 3 3 3 3 3 4 4 4 3 3 3 3 1 1 2 1 1 0 0 1 2 1
5 4 4 4 4 4 3 2 2 2 3 4 4 3 3 3 2 3 3 3 2 3 4 3 3 3 3 2 3 4 4 4 2 2 1 1 1 1 2 3 2 2
7 6 4 5 4 4 3 3 4 4 4 4 4 3 2 2 2 1 3 4 6 6 6 5 5 6 6 5 4 3 3 4 5 4 3 2 1 1 1 1 2 2
9 9 8 8 6 6 5 6 6 7 6 5 4 4 3 2 2 1 1 3 5 5 6 7 6 6 6 5 4 3 3 2 1 1 1 1 2 1 2 2 2 3
11 10 10 9 8 8 7 7 8 8 8 7 5 4 5 3 3 2 2 3 5 7 7 6 6 6 6 6 6 5 4 4 5 4 3 2 2 2 2 3 3 3
13 12 11 11 10 10 9 8 9 9 9 7 5 4 4 6 4 3 4 5 4 5 6 7 7 6 6 5 4 4 5 4 3 3 3 2 2 2 2 4 3 4
13 13 13 12 11 11 10 10 8 8 9 7 6 5 5 6 8 6 5 5 4 4 5 6 6 6 6 5 5 5 4 4 4 3 3 3 2 3 3 3 3 3
14 14 13 13 12 11 11 10 9 8 8 8 7 6 7 7 7 8 7 7 6 6 7 7 7 7 7 7 6 5 5 5 4 4 4 3 3 4 4 5 4 4
14 13 14 14 13 12 11 11 10 10 9 9 10 9 9 8 9 8 8 8 8 8 7 8 8 9 9 8 7 7 7 6 5 5 4 5 5 5 5 6 6 7
14 14 14 14 14 14 12 12 12 11 12 12 12 12 11 11 9 10 10 9 9 10 9 10 11 11 11 10 9 9 9 8 8 6 6 6 5 6 6 6 7 8
16 16 16 16 15 16 14 13 13 14 14 14 14 13 14 13 12 11 11 11 11 11 11 11 12 12 12 12 11 11 9 9 9 9 8 8 7 5 6 6 6 7
19 19 19 18 18 18 17 15 14 14 14 15 14 14 14 15 15 15 13 12 12 12 12 12 12 12 14 17 15 14 13 12 12 12 10 10 12 11 9 9 10 14
22 22 22 20 20 20 19 18 16 16 15 15 15 15 15 16 16 15 15 14 13 13 12 13 11 21 31 21 18 15 13 13 13 13 14 14 12 11 10 9 9 11
22 22 22 23 22 21 21 20 19 17 17 18 17 16 18 16 16 16 15 15 15 14 13 12 23 30 20 16 13 15 12 14 14 14 15 14 15 13 13 13 12 13
23 23 23 23 24 23 23 23 21 20 20 19 19 18 18 19 18 17 17 17 16 15 15 19 16 27 23 16 18 19 19 16 14 20 22 16 15 15 13 13 16 16
24 25 25 26 26 26 26 25 24 23 23 23 23 23 21 21 20 20 20 20 19 18 18 19 17 31 30 27 22 23 21 19 20 18 16 17 17 17 17 16 16 19
27 27 27 28 28 28 28 27 27 26 26 26 26 26 26 26 24 23 22 22 21 20 20 18 32 35 36 31 30 25 24 20 20 19 19 18 20 19 20 19 19 21
30 30 28 30 30 27 27 28 29 28 28 28 28 29 29 29 30 29 28 28 28 26 27 24 35 39 37 35 33 30 25 23 22 22 22 22 21 21 23 23 22 24
31 31 32 32 31 29 29 29 30 30 30 31 31 31 31 31 32 33 33 33 33 32 31 29 39 40 40 37 34 32 27 26 26 25 24 24 24 24 24 24 36 34
34 33 32 31 31 30 30 32 32 33 32 32 31 33 34 35 35 36 36 37 38 38 37 32 40 43 42 39 36 33 28 29 29 28 27 27 26 26 28 36 39 47
34 33 33 35 35 33 30 30 30 32 33 32 32 32 33 34 33 34 33 34 36 39 40 38 39 41 42 39 39 38 34 29 29 29 28 28 28 29 30 40 41 47
36 36 36 33 34 36 35 31 31 33 34 33 35 35 35 36 36 36 37 37 39 40 39 38 38 40 41 40 41 40 37 32 29 28 28 29 30 30 34 38 40 43
Wind_Direction
140 137 127 120 113 108 97 77 68 54 63 68 63 63 69 72 85 103 93 99 99 100 100 117 132 131 132 140 149 153 166 170 164 211 151 141 92 53 61 340 9 11
138 138 140 129 120 109 101 91 69 70 51 64 77 69 68 74 70 84 94 95 88 89 106 107 110 127 130 143 168 153 173 171 145 176 234 51 105 108 73 45 34 322
141 133 125 111 107 80 76 66 73 67 59 53 51 69 61 50 66 74 109 106 112 113 100 114 117 127 127 126 157 152 158 161 158 166 201 185 163 165 159 147 268 328
141 130 131 106 121 120 96 80 33 54 64 38 45 42 55 75 55 69 115 127 137 140 141 135 140 140 132 127 134 146 153 166 162 180 191 188 178 161 173 224 252 258
171 161 164 174 198 208 195 197 21 352 23 21 16 20 34 78 98 100 128 156 151 142 153 148 156 142 150 149 142 145 157 153 171 190 189 172 172 337 44 267 244 250
204 205 206 201 218 231 242 274 287 311 330 344 353 346 2 8 62 109 147 154 166 147 151 157 156 158 146 157 154 152 156 153 199 262 205 172 141 173 224 268 285 288
216 222 223 226 227 243 237 254 268 284 302 307 305 321 317 353 9 103 154 167 160 170 164 174 177 173 178 176 178 176 163 161 163 180 177 171 214 217 219 256 310 310
218 230 231 230 237 246 255 267 276 287 292 293 304 302 295 313 334 314 225 178 171 175 175 175 189 193 171 180 176 183 170 178 216 267 219 206 208 235 295 290 283 312
224 234 238 242 246 248 262 272 283 285 287 293 289 282 292 291 304 308 246 218 190 189 197 189 194 191 190 184 184 186 186 178 184 211 242 243 276 292 307 311 318 311
230 230 243 249 253 253 261 266 270 278 280 282 278 264 272 283 281 266 271 260 219 208 205 198 201 206 201 202 204 197 195 201 206 208 211 233 247 259 278 305 313 307
237 240 242 248 251 253 263 266 266 264 268 271 268 263 262 270 277 273 264 263 253 243 228 223 219 220 224 215 215 227 229 225 233 248 268 275 273 274 270 268 281 283
239 244 250 254 254 253 259 261 261 262 262 267 263 261 264 264 265 267 271 269 255 242 239 242 242 240 241 235 235 244 251 252 257 268 277 282 295 308 317 314 312 316
252 250 248 253 257 252 252 256 258 260 263 262 265 266 267 265 269 267 258 258 256 250 245 248 249 248 247 251 248 248 250 253 251 259 271 281 296 314 319 324 325 325
258 257 254 251 252 255 251 253 258 258 261 259 260 267 265 264 260 263 264 258 251 247 246 244 250 248 253 254 251 250 258 264 267 255 257 274 288 299 311 314 321 323
255 257 259 260 258 257 256 253 254 257 261 261 263 260 260 262 261 258 253 250 252 249 245 246 249 257 260 267 269 269 260 263 265 267 270 274 277 279 289 297 287 283
254 254 257 262 263 263 261 257 256 258 262 268 266 265 260 253 251 251 249 251 253 255 254 254 253 255 268 269 258 254 265 264 268 275 278 274 265 263 263 263 273 277
252 253 255 261 264 264 265 262 258 256 258 259 262 262 258 258 256 254 252 250 251 253 259 257 260 244 233 249 274 288 274 265 266 270 273 269 269 272 272 270 264 277
251 254 254 257 259 263 264 265 264 262 260 260 260 262 262 259 260 260 256 252 252 252 252 252 251 259 280 276 273 253 245 255 263 269 265 267 277 279 275 274 273 265
248 250 253 252 255 257 259 262 262 263 263 262 262 259 258 261 261 259 261 261 258 254 249 249 242 276 280 270 271 286 279 265 264 254 252 261 261 262 262 262 266 268
245 247 250 251 251 251 253 256 258 259 259 259 259 261 259 257 257 259 258 258 256 255 254 254 264 259 252 258 272 276 281 279 273 270 279 272 270 268 270 265 265 270
249 251 251 253 253 253 252 253 255 256 257 257 258 259 260 260 259 256 253 254 256 259 259 262 255 247 250 251 257 264 269 275 276 281 278 276 273 273 271 276 271 270
251 252 252 254 256 253 255 256 256 257 259 259 257 258 260 262 263 262 259 253 252 251 254 253 259 249 252 253 253 257 262 267 269 272 275 277 278 276 278 275 286 283
256 256 257 256 255 255 255 255 257 259 260 260 262 263 262 262 262 261 260 258 253 249 249 254 257 249 246 247 251 257 263 265 264 265 268 270 274 280 279 272 259 261
255 255 257 257 257 256 254 255 255 258 259 259 259 261 262 260 261 262 261 259 257 255 249 253 257 251 248 248 246 245 250 262 264 263 264 265 265 266 265 266 265 261
252 254 255 257 257 257 254 254 257 257 257 256 256 259 262 262 260 259 260 262 260 258 255 253 255 253 250 250 251 251 252 261 265 267 268 266 263 265 267 265 268 263
252 252 251 252 258 258 256 256 257 259 260 259 258 258 261 262 262 260 259 258 257 258 257 257 257 255 250 248 251 251 250 256 264 264 264 263 264 261 259 267 267 267